Lincoln, NE

2:07 PM CDT on May 22, 2017 (GMT -0500)
Lincoln Municipal

Weather History for KLNK - January, 2001

Change the Weather History Date:

Friday, January 26, 2001

  Actual Average Record
Temperature  
Mean Temperature 24 °F 25 °F  
Max Temperature 33 °F 36 °F 68 °F (2002)
Min Temperature 12 °F 14 °F -17 °F (1936)
Degree Days  
Heating Degree Days 42 40  
Month to date heating degree days 1056  
Since 1 July heating degree days 3501  
Cooling Degree Days 0 0  
Month to date cooling degree days 0  
Year to date cooling degree days 0  
Moisture  
Dew Point 22 °F    
Average Humidity 84    
Maximum Humidity 100    
Minimum Humidity 68    
Precipitation  
Precipitation 0.09 in 0.02 in 0.81 in (1944)
Month to date precipitation 0.52  
Year to date precipitation 0.52  
Snow  
Snow 0.00 in 0.20 in - ()
Month to date snowfall 4.4  
Since 1 July snowfall 13.1  
Snow Depth 2.00 in    
Sea Level Pressure  
Sea Level Pressure 30.00 in    
Wind  
Wind Speed 11 mph (NW)    
Max Wind Speed 30 mph    
Max Gust Speed 39 mph    
Visibility 6 miles    
Events Snow    
T = Trace of Precipitation, MM = Missing Value Source: NWS Daily Summary

Daily Weather History Graph

Daily Weather History Graph

Search for Another Location

Airport or City:

Trip Planner

Search our weather history database for the weather conditions in past years. The results will help you decide how hot, cold, wet, or windy it might be!

Date:

Astronomy

Jan. 26, 2001 Rise Set
Actual Time 7:42 AM CST 5:37 PM CST
Civil Twilight 7:13 AM CST 6:06 PM CST
Nautical Twilight 6:39 AM CST 6:39 PM CST
Astronomical Twilight 6:07 AM CST 7:12 PM CST
Moon 9:08 AM CST (1/26) 7:43 PM CST (1/26)
Length of Visible Light 10h 53m
Length of Day
9h 54m
Waxing Crescent, 4% of the Moon is Illuminated
Jan 26
Waxing Crescent
Feb 1
First Quarter
Feb 8
Full
Feb 14
Last Quarter
Feb 23
New

Hourly Weather History & Observations

Time (CST) Temp. Windchill Dew Point Humidity Pressure Visibility Wind Dir Wind Speed Gust Speed Precip Events Conditions
12:33 AM 30.2 °F 21.3 °F 26.6 °F 86% 29.80 in 2.5 mi South 10.4 mph - 0.00 in Snow Light Snow
12:36 AM 30.2 °F 21.3 °F 26.6 °F 86% 29.79 in 3.0 mi South 10.4 mph - 0.00 in Snow Light Snow
12:54 AM 30.0 °F 21.1 °F 28.0 °F 92% 29.82 in 3.0 mi South 10.4 mph - 0.01 in Snow Light Snow
12:58 AM 30.2 °F 21.9 °F 28.4 °F 93% 29.78 in 1.8 mi South 9.2 mph - 0.00 in Snow Light Snow
1:13 AM 30.2 °F 22.6 °F 28.4 °F 93% 29.77 in 2.5 mi SSE 8.1 mph - 0.01 in Snow Light Snow
1:25 AM 30.2 °F 23.4 °F 28.4 °F 93% 29.77 in 1.2 mi South 6.9 mph - 0.01 in Snow Light Snow
1:43 AM 30.2 °F 24.3 °F 28.4 °F 93% 29.76 in 1.5 mi South 5.8 mph - 0.02 in Snow Light Snow
1:54 AM 30.0 °F 26.5 °F 28.0 °F 92% 29.79 in 2.0 mi South 3.5 mph - 0.02 in Snow Light Snow
2:17 AM 30.2 °F 26.7 °F 28.4 °F 93% 29.75 in 1.0 mi SSE 3.5 mph - 0.01 in Snow Light Snow
2:40 AM 30.2 °F - 28.4 °F 93% 29.75 in 1.0 mi Calm Calm - 0.03 in Snow Light Snow
2:54 AM 30.0 °F - 30.0 °F 100% 29.78 in 1.5 mi Calm Calm - 0.03 in Snow Light Snow
3:54 AM 30.0 °F - 30.0 °F 100% 29.77 in 0.8 mi Calm Calm - 0.02 in Snow Light Snow
4:05 AM 30.2 °F - 30.2 °F 100% 29.74 in 1.2 mi Calm Calm - 0.00 in Snow Light Snow
4:32 AM 30.2 °F - 28.4 °F 93% 29.74 in 1.2 mi Calm Calm - 0.01 in Snow Light Snow
4:54 AM 30.0 °F - 30.0 °F 100% 29.77 in 1.2 mi Calm Calm - 0.01 in Snow Light Snow
5:02 AM 30.2 °F 26.7 °F 30.2 °F 100% 29.74 in 1.5 mi WNW 3.5 mph - 0.00 in Snow Light Snow
5:10 AM 30.2 °F - 30.2 °F 100% 29.75 in 1.5 mi Calm Calm - 0.00 in Snow Light Snow
5:23 AM 30.2 °F 26.7 °F 30.2 °F 100% 29.75 in 2.5 mi WNW 3.5 mph - 0.00 in Snow Light Snow
5:30 AM 30.2 °F - 30.2 °F 100% 29.76 in 3.0 mi Calm Calm - 0.00 in Snow Light Snow
5:37 AM 30.2 °F 25.4 °F 28.4 °F 93% 29.77 in 3.0 mi WNW 4.6 mph - 0.00 in Snow Light Snow
5:54 AM 30.9 °F 21.2 °F 30.0 °F 96% 29.81 in 3.0 mi WNW 12.7 mph - 0.00 in   Overcast
6:15 AM 33.8 °F 22.2 °F 28.4 °F 81% 29.79 in 8.0 mi NW 20.7 mph 26.5 mph 0.01 in Snow Light Snow
6:54 AM 32.0 °F 19.2 °F 26.1 °F 79% 29.85 in 8.0 mi NNW 23.0 mph 32.2 mph 0.00 in Snow Light Snow
7:19 AM 30.2 °F 16.5 °F 24.8 °F 80% 29.84 in 7.0 mi NW 24.2 mph 29.9 mph 0.00 in Snow Light Snow
7:54 AM 28.0 °F 13.6 °F 23.0 °F 81% 29.92 in 7.0 mi NW 24.2 mph 33.4 mph 0.00 in Snow Light Snow
8:54 AM 26.1 °F 10.4 °F 21.0 °F 81% 30.00 in 4.0 mi NNW 26.5 mph 32.2 mph 0.00 in Snow Light Snow
9:05 AM 26.6 °F 10.3 °F 19.4 °F 74% 29.97 in 3.0 mi NNW 29.9 mph - 0.00 in Snow Light Snow
9:45 AM 24.8 °F 8.4 °F 19.4 °F 80% 30.00 in 2.0 mi NNW 27.6 mph 35.7 mph 0.00 in Snow Light Snow
9:54 AM 25.0 °F 8.6 °F 19.0 °F 78% 30.04 in 3.0 mi NNW 27.6 mph 39.1 mph 0.00 in Snow Blowing Snow
10:54 AM 25.0 °F 9.2 °F 19.9 °F 81% 30.08 in 5.0 mi NNW 25.3 mph 34.5 mph N/A Snow Blowing Snow
11:54 AM 27.0 °F 11.9 °F 19.9 °F 75% 30.12 in 7.0 mi NW 25.3 mph 32.2 mph N/A   Overcast
12:54 PM 27.0 °F 11.0 °F 19.9 °F 75% 30.14 in 10.0 mi NNW 28.8 mph 35.7 mph 0.00 in   Overcast
1:54 PM 28.0 °F 13.6 °F 19.9 °F 72% 30.15 in 10.0 mi NNW 24.2 mph 39.1 mph N/A   Overcast
2:12 PM 26.6 °F 11.1 °F 19.4 °F 74% 30.12 in 10.0 mi NNW 26.5 mph 33.4 mph N/A   Overcast
2:23 PM 26.6 °F 11.1 °F 19.4 °F 74% 30.13 in 10.0 mi NW 26.5 mph 32.2 mph N/A   Overcast
2:54 PM 26.1 °F 10.4 °F 18.0 °F 71% 30.19 in 10.0 mi NNW 26.5 mph 33.4 mph N/A   Overcast
3:32 PM 24.8 °F 8.7 °F 17.6 °F 74% 30.18 in 10.0 mi NNW 26.5 mph 32.2 mph N/A   Overcast
3:54 PM 25.0 °F 11.3 °F 17.1 °F 72% 30.25 in 10.0 mi NNW 18.4 mph - N/A   Overcast
4:54 PM 24.1 °F 10.1 °F 16.0 °F 71% 30.29 in 10.0 mi NNW 18.4 mph - N/A   Mostly Cloudy
5:07 PM 24.8 °F 10.3 °F 15.8 °F 69% 30.25 in 10.0 mi NW 20.7 mph 26.5 mph N/A   Scattered Clouds
5:33 PM 23.0 °F 7.6 °F 15.8 °F 74% 30.26 in 10.0 mi NNW 21.9 mph - N/A   Mostly Cloudy
5:54 PM 21.9 °F 9.8 °F 14.0 °F 72% 30.32 in 10.0 mi NNW 12.7 mph - N/A   Scattered Clouds
6:18 PM 21.2 °F 8.9 °F 14.0 °F 74% 30.29 in 10.0 mi NNW 12.7 mph - N/A   Mostly Cloudy
6:43 PM 21.2 °F 7.8 °F 12.2 °F 68% 30.30 in 10.0 mi NNW 15.0 mph - N/A   Scattered Clouds
6:54 PM 21.0 °F 9.3 °F 12.9 °F 71% 30.35 in 10.0 mi NNW 11.5 mph - N/A   Clear
7:54 PM 19.0 °F 8.2 °F 12.0 °F 74% 30.38 in 10.0 mi NNW 9.2 mph - N/A   Clear
8:54 PM 18.0 °F 8.7 °F 10.9 °F 74% 30.40 in 10.0 mi WNW 6.9 mph - N/A   Clear
9:54 PM 17.1 °F 8.7 °F 10.9 °F 77% 30.41 in 10.0 mi NW 5.8 mph - N/A   Clear
10:54 PM 14.0 °F - 10.0 °F 84% 30.43 in 10.0 mi Calm Calm - N/A   Clear
11:54 PM 12.9 °F 1.6 °F 8.1 °F 81% 30.43 in 10.0 mi NW 8.1 mph - N/A   Clear